Dewar Lakes, Nunavut

10:20 PM EDT on May 22, 2017 (GMT -0400)
Dewar Lakes

Weather History for CWUW - June, 2013

Change the Weather History Date:

Friday, June 21, 2013

  Actual Average Record
Temperature  
Mean Temperature 28 °F -  
Max Temperature 30 °F 44 °F 51 °F (2008)
Min Temperature 26 °F 33 °F 24 °F (1999)
Degree Days  
Heating Degree Days 37    
Moisture  
Dew Point -    
Average Humidity    
Maximum Humidity    
Minimum Humidity    
Precipitation  
Precipitation 0.00 in 0.05 in - ()
Sea Level Pressure  
Sea Level Pressure 29.08 in    
Wind  
Wind Speed 20 mph ()    
Max Wind Speed 29 mph    
Max Gust Speed 31 mph    
Visibility 2.3 miles    
Events Rain , Snow    
Averages and records for this station are not official NWS values.
T = Trace of Precipitation, MM = Missing Value Source: Averaged Metar Reports

Daily Weather History Graph

Daily Weather History Graph

Search for Another Location

Airport or City:

Trip Planner

Search our weather history database for the weather conditions in past years. The results will help you decide how hot, cold, wet, or windy it might be!

Date:

Astronomy

Dec. 31, 1969 Rise Set
Actual Time Sun does not set Sun does not set
Civil Twilight Sun does not set Sun does not set
Nautical Twilight Sun does not set Sun does not set
Astronomical Twilight Sun does not set Sun does not set
Moon 9:58 PM EDT (6/21) 12:27 AM EDT (6/21)
Length of Visible Light 24h 00m
Length of Day
24h 00m
Waxing Gibbous, 95% of the Moon is Illuminated
Jun 21
Waxing Gibbous
Jun 23
Full
Jun 30
Last Quarter
Jul 8
New
Jul 15
First Quarter

Hourly Weather History & Observations

Time (EDT) Temp. Windchill Dew Point Humidity Pressure Visibility Wind Dir Wind Speed Gust Speed Precip Events Conditions
12:00 AM 26.6 °F 13.1 °F - N/A% 29.37 in 0.1 mi East 19.6 mph - N/A   Light Freezing Drizzle
1:00 AM 26.6 °F 12.7 °F - N/A% 29.35 in 0.1 mi East 20.7 mph - N/A   Heavy Freezing Drizzle
1:10 AM 26.6 °F 13.1 °F - N/A% 29.22 in 0.1 mi East 19.6 mph - N/A Snow Light Snow
1:17 AM 26.6 °F 13.4 °F - N/A% 29.22 in 0.2 mi East 18.4 mph - N/A Snow Light Snow
1:24 AM 26.6 °F 13.4 °F - N/A% 29.21 in 0.1 mi East 18.4 mph - N/A Snow Light Snow
1:38 AM 26.6 °F 13.4 °F - N/A% 29.21 in 0.1 mi East 18.4 mph - N/A   Light Freezing Drizzle
1:48 AM 26.6 °F 12.7 °F - N/A% 29.21 in 0.1 mi East 20.7 mph - N/A   Clear
2:00 AM 27 °F - - % 29.32 in 0 mi ENE 19.6 mph - -  
2:00 AM 26.6 °F 13.1 °F - N/A% 29.32 in 0.2 mi ENE 19.6 mph - N/A   Clear
2:09 AM 26.6 °F 13.1 °F - N/A% 29.20 in 0.2 mi ENE 19.6 mph - N/A   Light Freezing Drizzle
2:20 AM 26.6 °F 13.4 °F - N/A% 29.19 in 0.2 mi East 18.4 mph - N/A   Light Freezing Drizzle
2:25 AM 26.6 °F 12.7 °F - N/A% 29.19 in 1.0 mi East 20.7 mph - N/A   Light Freezing Drizzle
2:29 AM 26.6 °F 12.7 °F - N/A% 29.19 in 3.0 mi East 20.7 mph - N/A   Light Freezing Drizzle
2:30 AM 26.6 °F 12.7 °F - N/A% 29.19 in 3.0 mi East 20.7 mph - N/A   Light Freezing Drizzle
2:33 AM 26.6 °F 13.1 °F - N/A% 29.19 in 2.8 mi East 19.6 mph - N/A   Light Freezing Drizzle
2:36 AM 26.6 °F 12.7 °F - N/A% 29.19 in 1.8 mi East 20.7 mph - N/A Snow Light Snow
2:38 AM 26.6 °F 12.7 °F - N/A% 29.19 in 1.4 mi East 20.7 mph - N/A Snow Light Snow
2:56 AM 26.6 °F 13.1 °F - N/A% 29.18 in 1.4 mi East 19.6 mph 25.3 mph N/A Snow Light Snow
2:57 AM 26.6 °F 13.1 °F - N/A% 29.18 in 1.4 mi East 19.6 mph 25.3 mph N/A Snow Light Snow
2:59 AM 26.6 °F 13.1 °F - N/A% 29.18 in 2.8 mi East 19.6 mph 25.3 mph N/A Snow Light Snow
3:00 AM 26.6 °F 13.1 °F - N/A% 29.30 in 3.0 mi East 19.6 mph 25.3 mph N/A Snow Light Snow
3:08 AM 26.6 °F 12.7 °F - N/A% 29.17 in 3.0 mi ENE 20.7 mph - N/A Snow Light Snow
3:09 AM 26.6 °F 12.7 °F - N/A% 29.17 in 7.0 mi ENE 20.7 mph - N/A Snow Light Snow
3:16 AM 26.6 °F 13.4 °F - N/A% 29.18 in 2.5 mi ENE 18.4 mph - N/A   Clear
3:17 AM 26.6 °F 13.4 °F - N/A% 29.18 in 1.1 mi ENE 18.4 mph - N/A   Clear
3:18 AM 26.6 °F 13.8 °F - N/A% 29.18 in 0.6 mi ENE 17.3 mph 23.0 mph N/A   Overcast
3:20 AM 26.6 °F 13.1 °F - N/A% 29.17 in 0.4 mi ENE 19.6 mph - N/A   Overcast
3:23 AM 26.6 °F 13.1 °F - N/A% 29.17 in 0.1 mi ENE 19.6 mph - N/A   Clear
3:26 AM 26.6 °F 11.7 °F - N/A% 29.16 in 0.1 mi ENE 24.2 mph - N/A Snow Light Snow
3:42 AM 26.6 °F 11.1 °F - N/A% 29.16 in 0.1 mi ENE 26.5 mph - N/A Snow Light Snow
3:46 AM 26.6 °F 11.7 °F - N/A% 29.15 in 0.1 mi ENE 24.2 mph - N/A   Light Freezing Drizzle
4:00 AM 26.6 °F 13.4 °F - N/A% 29.26 in 0.1 mi ENE 18.4 mph 24.2 mph N/A   Light Freezing Drizzle
4:47 AM 26.6 °F 12.7 °F - N/A% 29.11 in 0.1 mi ENE 20.7 mph - N/A Snow Light Snow
5:00 AM 26 °F - - % 29.24 in 0 mi ENE 20.7 mph - - Snow Light Snow
5:00 AM 26.6 °F 12.0 °F - N/A% 29.24 in 0.1 mi ENE 23.0 mph - N/A Snow Light Snow
5:34 AM 26.6 °F 13.4 °F - N/A% 29.10 in 0.1 mi ENE 18.4 mph - N/A   Light Freezing Drizzle
5:44 AM 26.6 °F 13.1 °F - N/A% 29.09 in 0.1 mi ENE 19.6 mph - N/A Snow Light Snow
5:46 AM 26.6 °F 13.1 °F - N/A% 29.09 in 0.1 mi ENE 19.6 mph - N/A   Clear
5:59 AM 26.6 °F 13.1 °F - N/A% 29.08 in 0.1 mi ENE 19.6 mph - N/A Snow Light Snow
6:00 AM 26.6 °F 13.1 °F - N/A% 29.20 in 0.1 mi ENE 19.6 mph - N/A   Light Freezing Drizzle
6:18 AM 26.6 °F 11.4 °F - N/A% 29.07 in 0.1 mi ENE 25.3 mph - N/A   Light Freezing Drizzle
6:49 AM 26.6 °F 11.1 °F - N/A% 29.06 in 0.5 mi ENE 26.5 mph - N/A   Light Freezing Drizzle
6:52 AM 26.6 °F 11.1 °F - N/A% 29.05 in 1.0 mi ENE 26.5 mph - N/A   Light Freezing Drizzle
6:58 AM 26.6 °F 12.4 °F - N/A% 29.06 in 1.4 mi ENE 21.9 mph 28.8 mph N/A   Overcast
6:59 AM 26.6 °F 12.0 °F - N/A% 29.06 in 2.2 mi ENE 23.0 mph - N/A   Overcast
7:00 AM 26.6 °F 12.0 °F - N/A% 29.17 in 2.1 mi ENE 23.0 mph - N/A   Overcast
7:08 AM 26.6 °F 13.8 °F - N/A% 29.05 in 2.1 mi ENE 17.3 mph 25.3 mph N/A   Overcast
7:12 AM 26.6 °F 13.8 °F - N/A% 29.06 in 2.0 mi ENE 17.3 mph 25.3 mph N/A   Overcast
7:17 AM 26.6 °F 13.1 °F - N/A% 29.05 in 1.5 mi ENE 19.6 mph - N/A   Overcast
7:26 AM 26.6 °F 12.0 °F - N/A% 29.05 in 1.5 mi ENE 23.0 mph - N/A   Overcast
7:27 AM 26.6 °F 13.1 °F - N/A% 29.05 in 1.4 mi ENE 19.6 mph - N/A   Overcast
7:28 AM 26.6 °F 13.4 °F - N/A% 29.05 in 1.2 mi ENE 18.4 mph - N/A Snow Light Snow
7:31 AM 26.6 °F 13.8 °F - N/A% 29.05 in 1.0 mi ENE 17.3 mph 23.0 mph N/A Snow Light Snow
7:34 AM 26.6 °F 13.4 °F - N/A% 29.05 in 0.6 mi ENE 18.4 mph - N/A Snow Light Snow
7:41 AM 26.6 °F 13.1 °F - N/A% 29.04 in 0.4 mi ENE 19.6 mph - N/A Snow Light Snow
8:00 AM 27 °F - - % 29.16 in 0 mi ENE 19.6 mph - -   Overcast
8:00 AM 26.6 °F 12.0 °F - N/A% 29.16 in 0.2 mi ENE 23.0 mph - N/A Snow Light Snow
8:11 AM 26.6 °F 12.4 °F - N/A% 29.04 in 0.1 mi East 21.9 mph - N/A Snow Light Snow
8:20 AM 26.6 °F 11.1 °F - N/A% 29.03 in 0.1 mi ENE 26.5 mph - N/A   Light Freezing Drizzle
8:27 AM 26.6 °F 11.1 °F - N/A% 29.03 in 0.1 mi East 26.5 mph - N/A   Light Freezing Drizzle
8:32 AM 26.6 °F 10.8 °F - N/A% 29.03 in 0.1 mi East 27.6 mph - N/A Snow Light Snow
8:35 AM 26.6 °F 10.6 °F - N/A% 29.03 in 0.2 mi ENE 28.8 mph - N/A Snow Light Snow
8:41 AM 26.6 °F 11.7 °F - N/A% 29.03 in 0.1 mi ENE 24.2 mph 29.9 mph N/A Snow Light Snow
8:55 AM 26.6 °F 12.7 °F - N/A% 29.03 in 0.1 mi ENE 20.7 mph 26.5 mph N/A Snow Light Snow
8:57 AM 26.6 °F 12.4 °F - N/A% 29.03 in 0.1 mi ENE 21.9 mph - N/A   Light Freezing Drizzle
9:00 AM 26.6 °F 12.0 °F - N/A% 29.16 in 0.1 mi ENE 23.0 mph - N/A   Light Freezing Drizzle
9:05 AM 26.6 °F 12.0 °F - N/A% 29.03 in 0.1 mi ENE 23.0 mph - N/A   Light Freezing Drizzle
9:12 AM 26.6 °F 11.4 °F - N/A% 29.03 in 0.1 mi ENE 25.3 mph - N/A Snow Light Snow
9:19 AM 26.6 °F 11.4 °F - N/A% 29.02 in 0.2 mi ENE 25.3 mph - N/A Snow Light Snow
9:41 AM 28.4 °F 13.5 °F - N/A% 29.02 in 0.4 mi East 26.5 mph - N/A Snow Light Snow
9:53 AM 28.4 °F 13.5 °F - N/A% 29.01 in 0.1 mi East 26.5 mph - N/A Snow Light Snow
10:00 AM 28.4 °F 13.8 °F - N/A% 29.13 in 0.1 mi East 25.3 mph - N/A Snow Light Snow
10:26 AM 28.4 °F 13.8 °F - N/A% 29.01 in 0.1 mi East 25.3 mph - N/A Snow Light Snow
10:36 AM 28.4 °F 13.8 °F - N/A% 29.01 in 0.1 mi East 25.3 mph - N/A Snow Light Snow
11:00 AM 28 °F - - % 29.13 in 0 mi East 24.2 mph - - Snow Light Snow
11:00 AM 28.4 °F 13.8 °F - N/A% 29.13 in 0.1 mi East 25.3 mph 31.1 mph N/A Snow Light Snow
11:33 AM 28.4 °F 13.8 °F - N/A% 29.01 in 0.5 mi East 25.3 mph - N/A Snow Light Snow
11:55 AM 28.4 °F 14.1 °F - N/A% 29.00 in 1.0 mi East 24.2 mph 29.9 mph N/A Snow Light Snow
11:59 AM 28.4 °F 13.8 °F - N/A% 29.00 in 1.1 mi East 25.3 mph - N/A   Overcast
12:00 PM 28.4 °F 13.8 °F - N/A% 29.12 in 1.1 mi East 25.3 mph - N/A   Overcast
12:04 PM 28.4 °F 14.4 °F - N/A% 29.00 in 1.4 mi East 23.0 mph - N/A   Overcast
12:10 PM 30.2 °F 16.5 °F - N/A% 29.00 in 1.4 mi East 24.2 mph - N/A   Overcast
12:12 PM 28.4 °F 14.1 °F - N/A% 29.00 in 1.4 mi East 24.2 mph - N/A   Overcast
12:14 PM 28.4 °F 13.8 °F - N/A% 29.00 in 2.5 mi East 25.3 mph - N/A   Mostly Cloudy
12:15 PM 28.4 °F 13.5 °F - N/A% 29.00 in 2.5 mi East 26.5 mph - N/A   Mostly Cloudy
12:25 PM 30.2 °F 16.2 °F - N/A% 29.01 in 3.0 mi East 25.3 mph - N/A   Mostly Cloudy
12:31 PM 30.2 °F 16.5 °F - N/A% 29.01 in 5.0 mi East 24.2 mph - N/A   Mostly Cloudy
12:35 PM 28.4 °F 14.1 °F - N/A% 29.01 in 5.0 mi East 24.2 mph - N/A   Overcast
12:45 PM 28.4 °F 14.4 °F - N/A% 29.01 in 6.0 mi East 23.0 mph - N/A   Overcast
1:00 PM 30.2 °F 17.1 °F - N/A% 29.13 in 3.5 mi East 21.9 mph - N/A   Overcast
1:04 PM 30.2 °F 16.2 °F - N/A% 29.01 in 2.5 mi East 25.3 mph - N/A   Overcast
1:24 PM 30.2 °F 16.8 °F - N/A% 29.02 in 9.0 mi East 23.0 mph - N/A   Overcast
1:57 PM 30.2 °F 16.8 °F - N/A% 29.02 in 4.0 mi East 23.0 mph - N/A   Overcast
2:00 PM 29 °F - - % 29.13 in 3 mi East 23.0 mph - -   Overcast
2:00 PM 30.2 °F 17.4 °F - N/A% 29.13 in 2.8 mi East 20.7 mph 26.5 mph N/A   Overcast
2:02 PM 30.2 °F 17.4 °F - N/A% 29.01 in 2.6 mi East 20.7 mph 26.5 mph N/A   Overcast
2:12 PM 30.2 °F 16.8 °F - N/A% 29.01 in 3.0 mi East 23.0 mph - N/A   Overcast
2:13 PM 30.2 °F 16.2 °F - N/A% 29.01 in 9.0 mi East 25.3 mph - N/A   Overcast
2:16 PM 30.2 °F 15.9 °F - N/A% 29.01 in 1.6 mi East 26.5 mph - N/A   Overcast
2:17 PM 30.2 °F 15.9 °F - N/A% 29.02 in 1.0 mi East 26.5 mph - N/A   Overcast
2:18 PM 30.2 °F 16.5 °F - N/A% 29.02 in 0.6 mi East 24.2 mph - N/A   Overcast
2:19 PM 30.2 °F 16.8 °F - N/A% 29.02 in 0.6 mi East 23.0 mph 28.8 mph N/A   Overcast
2:29 PM 30.2 °F 17.1 °F - N/A% 29.02 in 1.4 mi East 21.9 mph - N/A   Overcast
2:31 PM 30.2 °F 17.1 °F - N/A% 29.02 in 1.4 mi East 21.9 mph - N/A   Overcast
2:36 PM 30.2 °F 17.1 °F - N/A% 29.02 in 1.0 mi East 21.9 mph - N/A   Unknown
2:37 PM 30.2 °F 16.2 °F - N/A% 29.02 in 0.6 mi East 25.3 mph - N/A   Unknown
2:38 PM 30.2 °F 16.5 °F - N/A% 29.02 in 0.5 mi East 24.2 mph - N/A Rain Light Freezing Rain
2:39 PM 30.2 °F 17.4 °F - N/A% 29.03 in 0.4 mi East 20.7 mph 26.5 mph N/A Rain Light Freezing Rain
2:40 PM 30.2 °F 17.4 °F - N/A% 29.03 in 0.2 mi East 20.7 mph 26.5 mph N/A Rain Light Freezing Rain
2:41 PM 30.2 °F 17.1 °F - N/A% 29.03 in 0.1 mi East 21.9 mph - N/A Rain Light Freezing Rain
2:54 PM 30.2 °F 17.4 °F - N/A% 29.02 in 0.6 mi East 20.7 mph - N/A Rain Light Freezing Rain
2:56 PM 30.2 °F 17.4 °F - N/A% 29.02 in 1.5 mi East 20.7 mph - N/A Rain Light Freezing Rain
2:57 PM 30.2 °F 17.1 °F - N/A% 29.02 in 2.4 mi East 21.9 mph - N/A Rain Light Freezing Rain
2:59 PM 30.2 °F 16.2 °F - N/A% 29.02 in 3.5 mi ENE 25.3 mph - N/A   Overcast
3:00 PM 30.2 °F 16.2 °F - N/A% 29.13 in 4.0 mi ENE 25.3 mph - N/A   Overcast
3:07 PM 30.2 °F 17.1 °F - N/A% 29.02 in 0.4 mi East 21.9 mph 27.6 mph N/A Rain Light Freezing Rain
3:09 PM 30.2 °F 15.9 °F - N/A% 29.02 in 0.4 mi ENE 26.5 mph - N/A   Overcast
3:17 PM 30.2 °F 16.2 °F - N/A% 29.03 in 1.0 mi ENE 25.3 mph - N/A   Mostly Cloudy
3:19 PM 30.2 °F 16.5 °F - N/A% 29.02 in 1.5 mi East 24.2 mph - N/A   Overcast
3:22 PM 30.2 °F 17.4 °F - N/A% 29.02 in 1.4 mi East 20.7 mph 27.6 mph N/A   Overcast
3:24 PM 30.2 °F 17.1 °F - N/A% 29.02 in 0.6 mi East 21.9 mph - N/A   Overcast
3:26 PM 30.2 °F 17.1 °F - N/A% 29.02 in 0.4 mi East 21.9 mph - N/A   Overcast
3:38 PM 30.2 °F 17.8 °F - N/A% 29.02 in 0.4 mi East 19.6 mph - N/A   Mostly Cloudy
3:39 PM 30.2 °F 17.8 °F - N/A% 29.02 in 1.0 mi East 19.6 mph - N/A   Mostly Cloudy
3:40 PM 30.2 °F 17.4 °F - N/A% 29.02 in 1.0 mi East 20.7 mph - N/A   Mostly Cloudy
3:41 PM 30.2 °F 17.4 °F - N/A% 29.02 in 1.5 mi East 20.7 mph - N/A   Mostly Cloudy
3:47 PM 30.2 °F 16.5 °F - N/A% 29.03 in 3.0 mi ENE 24.2 mph - N/A   Overcast
3:49 PM 30.2 °F 17.1 °F - N/A% 29.03 in 2.8 mi ENE 21.9 mph - N/A   Overcast
4:00 PM 30.2 °F 15.4 °F - N/A% 29.14 in 2.1 mi ENE 28.8 mph - N/A   Overcast
4:10 PM 30.2 °F 16.8 °F - N/A% 29.03 in 3.0 mi East 23.0 mph 28.8 mph N/A   Overcast
4:12 PM 30.2 °F 17.1 °F - N/A% 29.03 in 7.0 mi East 21.9 mph 28.8 mph N/A   Overcast
4:16 PM 30.2 °F 16.8 °F - N/A% 29.03 in 9.0 mi ENE 23.0 mph - N/A   Overcast
4:18 PM 30.2 °F 17.4 °F - N/A% 29.04 in 9.0 mi ENE 20.7 mph - N/A   Overcast
4:19 PM 30.2 °F 17.4 °F - N/A% 29.04 in 9.0 mi ENE 20.7 mph - N/A   Overcast
4:29 PM 30.2 °F 16.2 °F - N/A% 29.03 in 4.0 mi East 25.3 mph - N/A   Overcast
4:30 PM 30.2 °F 15.9 °F - N/A% 29.03 in 4.0 mi ENE 26.5 mph - N/A   Overcast
4:35 PM 30.2 °F 15.7 °F - N/A% 29.03 in 2.1 mi ENE 27.6 mph - N/A   Overcast
4:36 PM 30.2 °F 15.9 °F - N/A% 29.03 in 1.1 mi ENE 26.5 mph - N/A   Overcast
4:37 PM 30.2 °F 15.9 °F - N/A% 29.03 in 0.6 mi ENE 26.5 mph - N/A   Overcast
4:39 PM 28.4 °F 14.1 °F - N/A% 29.03 in 0.4 mi ENE 24.2 mph - N/A   Overcast
4:40 PM 30.2 °F 16.5 °F - N/A% 29.03 in 0.2 mi ENE 24.2 mph - N/A   Overcast
4:42 PM 30.2 °F 17.1 °F - N/A% 29.03 in 0.1 mi ENE 21.9 mph 27.6 mph N/A   Overcast
4:49 PM 30.2 °F 18.1 °F - N/A% 29.03 in 0.1 mi East 18.4 mph 26.5 mph N/A   Light Freezing Drizzle
4:59 PM 30.2 °F 17.1 °F - N/A% 29.03 in 0.4 mi ENE 21.9 mph - N/A   Light Freezing Drizzle
5:00 PM 30 °F - - % 29.14 in 0 mi ENE 19.6 mph - - Rain Light Freezing Rain
5:00 PM 30.2 °F 16.8 °F - N/A% 29.14 in 0.4 mi East 23.0 mph - N/A   Light Freezing Drizzle
5:05 PM 28.4 °F 13.8 °F - N/A% 29.03 in 0.1 mi East 25.3 mph - N/A   Overcast
5:28 PM 30.2 °F 18.1 °F - N/A% 29.04 in 0.2 mi East 18.4 mph - N/A   Overcast
5:31 PM 30.2 °F 18.5 °F - N/A% 29.03 in 0.2 mi East 17.3 mph 23.0 mph N/A   Overcast
5:38 PM 30.2 °F 18.5 °F - N/A% 29.03 in 1.1 mi East 17.3 mph - N/A   Overcast
5:43 PM 30.2 °F 17.1 °F - N/A% 29.03 in 1.0 mi East 21.9 mph - N/A   Overcast
5:45 PM 30.2 °F 17.1 °F - N/A% 29.03 in 0.6 mi East 21.9 mph - N/A   Clear
5:54 PM 30.2 °F 18.5 °F - N/A% 29.03 in 0.4 mi East 17.3 mph 26.5 mph N/A   Overcast
6:00 PM 30.2 °F 18.5 °F - N/A% 29.16 in 0.4 mi East 17.3 mph - N/A   Clear
6:08 PM 30.2 °F 17.8 °F - N/A% 29.03 in 2.1 mi East 19.6 mph - N/A   Clear
6:10 PM 30.2 °F 18.1 °F - N/A% 29.03 in 1.1 mi East 18.4 mph - N/A   Clear
6:11 PM 30.2 °F 18.1 °F - N/A% 29.03 in 1.0 mi East 18.4 mph - N/A   Clear
6:13 PM 30.2 °F 18.5 °F - N/A% 29.03 in 0.6 mi East 17.3 mph - N/A   Clear
6:18 PM 28.4 °F 15.4 °F - N/A% 29.03 in 0.4 mi East 19.6 mph - N/A   Clear
6:28 PM 28.4 °F 15.4 °F - N/A% 29.04 in 1.0 mi East 19.6 mph - N/A   Overcast
6:31 PM 28.4 °F 15.1 °F - N/A% 29.04 in 1.0 mi East 20.7 mph - N/A   Overcast
6:38 PM 30.2 °F 18.9 °F - N/A% 29.03 in 1.1 mi East 16.1 mph 21.9 mph N/A   Overcast
6:44 PM 30.2 °F 19.3 °F - N/A% 29.04 in 1.4 mi East 15.0 mph - N/A   Mostly Cloudy
6:46 PM 30.2 °F 18.9 °F - N/A% 29.04 in 3.0 mi East 16.1 mph - N/A   Mostly Cloudy
6:52 PM 30.2 °F 18.1 °F - N/A% 29.04 in 9.0 mi East 18.4 mph - N/A   Mostly Cloudy
7:00 PM 30.2 °F 18.9 °F - N/A% 29.16 in 9.0 mi East 16.1 mph - N/A   Overcast
7:19 PM 30.2 °F 17.8 °F - N/A% 29.04 in 9.0 mi East 19.6 mph - N/A   Mostly Cloudy
7:28 PM 30.2 °F 17.4 °F - N/A% 29.04 in 9.0 mi East 20.7 mph - N/A   Overcast
7:40 PM 30.2 °F 17.4 °F - N/A% 29.05 in 9.0 mi East 20.7 mph - N/A   Mostly Cloudy
7:43 PM 30.2 °F 18.1 °F - N/A% 29.05 in 9.0 mi East 18.4 mph - N/A   Overcast
7:44 PM 30.2 °F 17.8 °F - N/A% 29.04 in 9.0 mi East 19.6 mph - N/A   Overcast
8:00 PM 30 °F - - % 29.15 in 9 mi East 16.1 mph - -   Overcast
8:00 PM 30.2 °F 19.3 °F - N/A% 29.15 in 9.0 mi East 15.0 mph 20.7 mph N/A   Overcast
8:03 PM 30.2 °F 19.3 °F - N/A% 29.04 in 9.0 mi East 15.0 mph 20.7 mph N/A   Overcast
8:13 PM 30.2 °F 18.9 °F - N/A% 29.04 in 9.0 mi East 16.1 mph - N/A   Mostly Cloudy
8:22 PM 30.2 °F 18.1 °F - N/A% 29.04 in 9.0 mi East 18.4 mph - N/A   Scattered Clouds
8:31 PM 30.2 °F 17.8 °F - N/A% 29.04 in 9.0 mi East 19.6 mph - N/A   Partly Cloudy
8:54 PM 30.2 °F 19.3 °F - N/A% 29.04 in 9.0 mi East 15.0 mph - N/A   Mostly Cloudy
9:00 PM 30.2 °F 19.3 °F - N/A% 29.16 in 9.0 mi East 15.0 mph - N/A   Mostly Cloudy
9:25 PM 28.4 °F 16.6 °F - N/A% 29.05 in 9.0 mi East 16.1 mph - N/A   Overcast
10:00 PM 28.4 °F 16.2 °F - N/A% 29.17 in 9.0 mi East 17.3 mph - N/A   Partly Cloudy
10:49 PM 28.4 °F 17.0 °F - N/A% 29.06 in 9.0 mi East 15.0 mph - N/A   Mostly Cloudy
11:00 PM 28 °F - - % 29.18 in 9 mi East 18.4 mph - -  
11:00 PM 28.4 °F 15.8 °F - N/A% 29.18 in 9.0 mi East 18.4 mph - N/A   Mostly Cloudy
11:14 PM 28.4 °F 15.8 °F - N/A% 29.06 in 9.0 mi East 18.4 mph - N/A   Scattered Clouds